Back to catalog

DELTA 1 DEB

AlivePO
NORAD 8678·DEBRIS·🇺🇸 United States

Launched Jan 22, 1975 from Vandenberg Space Force Base

Loading…

Next Passes (next 24 hours)

TLE

FreshSource: Space-Track

Epoch: Sep 13, 2026, 11:50 UTC

1 08678U 75004F   26256.49367949  .00000055  00000-0  43914-4 0  9992
2 08678  97.6351 236.1437 0173244 245.3222 112.9828 14.10386333651037

Track DELTA 1 DEB in real time with AllMySat

Download on the App Store